When you browse on this site, cookies collect data to enhance your experience and personalize the content and advertising you see.
Visit our Privacy Policy to learn more. By continuing to use the site, you agree to this use of cookies and data.
  • In Denmark
  • List of Countries
  • For 7 days
  • Water Temperature
  • Satellite Maps
  • Weather Map
  • Weather Widgets
  • user-avatar
    Login

    Hourly Weather Perth

    Today, 18 January, Friday

    Time Temperature Precipitation Wind Pressure Humidity
    00:00 +19°C° 0 mm 4 mps 760 mmHg 73%
    01:00 +19°C° 0 mm 4 mps 760 mmHg 69%
    02:00 +19°C° 0 mm 3 mps 760 mmHg 66%
    03:00 +19°C° 0 mm 3 mps 760 mmHg 66%
    04:00 +19°C° 0 mm 3 mps 760 mmHg 67%
    05:00 +19°C° 0 mm 4 mps 760 mmHg 67%
    06:00 +20°C° 0 mm 4 mps 761 mmHg 64%
    07:00 +21°C° 0 mm 4 mps 761 mmHg 60%
    08:00 +22°C° 0 mm 4 mps 762 mmHg 57%
    09:00 +25°C° 0 mm 3 mps 761 mmHg 48%
    10:00 +28°C° 0 mm 3 mps 761 mmHg 39%
    11:00 +30°C° 0 mm 2 mps 761 mmHg 30%
    12:00 +31°C° 0 mm 3 mps 761 mmHg 28%
    13:00 +34°C° 0 mm 3 mps 760 mmHg 25%
    14:00 +35°C° 0 mm 3 mps 760 mmHg 23%
    15:00 +34°C° 0 mm 4 mps 760 mmHg 24%
    16:00 +34°C° 0 mm 4 mps 759 mmHg 25%
    17:00 +33°C° 0 mm 4 mps 759 mmHg 27%
    18:00 +30°C° 0 mm 4 mps 759 mmHg 32%
    19:00 +28°C° 0 mm 4 mps 759 mmHg 37%
    20:00 +26°C° 0 mm 4 mps 760 mmHg 42%
    21:00 +25°C° 0 mm 3 mps 760 mmHg 41%
    22:00 +25°C° 0 mm 3 mps 760 mmHg 40%
    23:00 +24°C° 0 mm 2 mps 760 mmHg 39%

    Tomorrow, 19 January, Saturday

    Time Temperature Precipitation Wind Pressure Humidity
    00:00 +25°C° 0 mm 3 mps 760 mmHg 37%
    01:00 +25°C° 0 mm 4 mps 760 mmHg 34%
    02:00 +25°C° 0 mm 5 mps 760 mmHg 32%
    03:00 +25°C° 0 mm 5 mps 760 mmHg 36%
    04:00 +24°C° 0 mm 6 mps 760 mmHg 40%
    05:00 +23°C° 0 mm 6 mps 760 mmHg 45%
    06:00 +24°C° 0 mm 6 mps 760 mmHg 42%
    07:00 +27°C° 0 mm 6 mps 760 mmHg 40%
    08:00 +28°C° 0 mm 6 mps 760 mmHg 38%
    09:00 +32°C° 0 mm 5 mps 760 mmHg 34%
    10:00 +35°C° 0 mm 4 mps 760 mmHg 30%
    11:00 +38°C° 0 mm 3 mps 759 mmHg 25%
    12:00 +39°C° 0 mm 3 mps 759 mmHg 23%
    13:00 +42°C° 0 mm 3 mps 758 mmHg 20%
    14:00 +42°C° 0 mm 2 mps 758 mmHg 18%
    15:00 +42°C° 0 mm 3 mps 758 mmHg 19%
    16:00 +41°C° 0 mm 4 mps 757 mmHg 21%
    17:00 +40°C° 0 mm 5 mps 757 mmHg 22%
    18:00 +37°C° 0 mm 5 mps 757 mmHg 26%
    19:00 +35°C° 0 mm 5 mps 757 mmHg 29%
    20:00 +33°C° 0 mm 5 mps 758 mmHg 32%
    21:00 +32°C° 0 mm 4 mps 758 mmHg 32%
    22:00 +30°C° 0 mm 4 mps 758 mmHg 32%
    23:00 +29°C° 0 mm 3 mps 758 mmHg 31%

    Day after tomorrow, 20 January, Sunday

    Time Temperature Precipitation Wind Pressure Humidity
    00:00 +29°C° 0 mm 3 mps 758 mmHg 30%
    01:00 +29°C° 0 mm 3 mps 758 mmHg 29%
    02:00 +29°C° 0 mm 3 mps 757 mmHg 28%
    03:00 +28°C° 0 mm 3 mps 757 mmHg 30%
    04:00 +28°C° 0 mm 3 mps 757 mmHg 31%
    05:00 +27°C° 0 mm 3 mps 757 mmHg 33%
    06:00 +30°C° 0 mm 3 mps 757 mmHg 30%
    07:00 +33°C° 0 mm 4 mps 757 mmHg 27%
    08:00 +36°C° 0 mm 4 mps 758 mmHg 24%
    09:00 +38°C° 0 mm 4 mps 757 mmHg 22%
    10:00 +40°C° 0 mm 3 mps 757 mmHg 19%
    11:00 +43°C° 0 mm 3 mps 757 mmHg 17%
    12:00 +43°C° 0 mm 4 mps 757 mmHg 17%
    13:00 +44°C° 0 mm 4 mps 756 mmHg 17%
    14:00 +44°C° 0 mm 4 mps 755 mmHg 17%
    15:00 +43°C° 0 mm 5 mps 755 mmHg 19%
    16:00 +41°C° 0 mm 5 mps 755 mmHg 21%
    17:00 +40°C° 0 mm 5 mps 754 mmHg 23%
    18:00 +37°C° 0 mm 5 mps 754 mmHg 25%
    19:00 +35°C° 0 mm 4 mps 755 mmHg 28%
    20:00 +33°C° 0 mm 3 mps 755 mmHg 30%
    21:00 +31°C° 0 mm 3 mps 755 mmHg 31%
    22:00 +31°C° 0 mm 2 mps 755 mmHg 31%
    23:00 +30°C° 0 mm 2 mps 756 mmHg 31%

    21 January, Monday

    Time Temperature Precipitation Wind Pressure Humidity
    00:00 +29°C° 0 mm 2 mps 755 mmHg 31%
    01:00 +29°C° 0 mm 2 mps 755 mmHg 31%
    02:00 +29°C° 0 mm 2 mps 754 mmHg 31%
    03:00 +29°C° 0 mm 1 mps 754 mmHg 33%
    04:00 +28°C° 0 mm 1 mps 754 mmHg 34%
    05:00 +28°C° 0 mm 1 mps 754 mmHg 35%
    06:00 +30°C° 0 mm 1 mps 754 mmHg 33%
    07:00 +32°C° 0 mm 1 mps 754 mmHg 31%
    08:00 +34°C° 0 mm 1 mps 755 mmHg 29%
    09:00 +36°C° 0 mm 2 mps 754 mmHg 27%
    10:00 +38°C° 0 mm 3 mps 754 mmHg 26%
    11:00 +40°C° 0 mm 4 mps 754 mmHg 25%
    12:00 +40°C° 0 mm 5 mps 753 mmHg 27%
    13:00 +39°C° 0 mm 6 mps 753 mmHg 29%
    14:00 +38°C° 0 mm 7 mps 752 mmHg 30%
    15:00 +36°C° 0 mm 7 mps 752 mmHg 31%
    16:00 +34°C° 0 mm 7 mps 752 mmHg 32%
    17:00 +33°C° 0 mm 7 mps 752 mmHg 32%
    18:00 +30°C° 0 mm 7 mps 752 mmHg 36%
    19:00 +29°C° 0 mm 6 mps 753 mmHg 39%
    20:00 +27°C° 0 mm 6 mps 754 mmHg 42%
    21:00 +27°C° 0.4 mm 5 mps 754 mmHg 47%
    22:00 +26°C° 0.4 mm 4 mps 755 mmHg 52%
    23:00 +26°C° 0.4 mm 4 mps 755 mmHg 57%

    22 January, Tuesday

    Time Temperature Precipitation Wind Pressure Humidity
    00:00 +26°C° 0 mm 3 mps 755 mmHg 56%
    01:00 +26°C° 0 mm 2 mps 754 mmHg 54%
    02:00 +26°C° 0 mm 1 mps 754 mmHg 53%
    03:00 +26°C° 0 mm 2 mps 754 mmHg 52%
    04:00 +25°C° 0 mm 3 mps 754 mmHg 52%
    05:00 +25°C° 0 mm 3 mps 754 mmHg 51%
    06:00 +26°C° 0 mm 3 mps 755 mmHg 47%
    07:00 +26°C° 0 mm 3 mps 755 mmHg 42%
    08:00 +27°C° 0 mm 3 mps 755 mmHg 38%
    09:00 +30°C° 0 mm 3 mps 755 mmHg 34%
    10:00 +33°C° 0 mm 3 mps 755 mmHg 30%
    11:00 +35°C° 0 mm 3 mps 755 mmHg 26%
    12:00 +36°C° 0 mm 3 mps 754 mmHg 26%
    13:00 +37°C° 0 mm 4 mps 754 mmHg 26%
    14:00 +39°C° 0 mm 5 mps 753 mmHg 27%
    15:00 +35°C° 0 mm 5 mps 753 mmHg 34%
    16:00 +33°C° 0 mm 5 mps 753 mmHg 41%
    17:00 +29°C° 0 mm 6 mps 753 mmHg 48%
    18:00 +29°C° 0 mm 5 mps 753 mmHg 49%
    19:00 +28°C° 0 mm 4 mps 754 mmHg 50%
    20:00 +27°C° 0 mm 3 mps 754 mmHg 51%
    21:00 +28°C° 0 mm 2 mps 754 mmHg 50%
    22:00 +28°C° 0 mm 2 mps 754 mmHg 49%
    23:00 +28°C° 0 mm 2 mps 754 mmHg 48%

    23 January, Wednesday

    Time Temperature Precipitation Wind Pressure Humidity
    00:00 +27°C° 0 mm 2 mps 754 mmHg 54%
    01:00 +26°C° 0 mm 1 mps 754 mmHg 60%
    02:00 +24°C° 0 mm 1 mps 754 mmHg 67%
    03:00 +24°C° 0 mm 1 mps 754 mmHg 69%
    04:00 +24°C° 0 mm 1 mps 754 mmHg 72%
    05:00 +23°C° 0 mm 1 mps 754 mmHg 75%
    06:00 +24°C° 0 mm 2 mps 754 mmHg 73%
    07:00 +25°C° 0 mm 3 mps 754 mmHg 71%
    08:00 +26°C° 0 mm 3 mps 755 mmHg 68%
    09:00 +26°C° 0 mm 4 mps 754 mmHg 65%
    10:00 +27°C° 0 mm 5 mps 754 mmHg 61%
    11:00 +28°C° 0 mm 5 mps 754 mmHg 58%
    12:00 +27°C° 0 mm 6 mps 754 mmHg 56%
    13:00 +27°C° 0 mm 6 mps 754 mmHg 55%
    14:00 +26°C° 0 mm 6 mps 753 mmHg 53%
    15:00 +26°C° 0 mm 6 mps 754 mmHg 53%
    16:00 +24°C° 0 mm 6 mps 754 mmHg 53%
    17:00 +23°C° 0 mm 6 mps 754 mmHg 52%
    18:00 +22°C° 0 mm 5 mps 755 mmHg 58%
    19:00 +21°C° 0 mm 5 mps 755 mmHg 63%
    20:00 +19°C° 0 mm 4 mps 756 mmHg 68%
    21:00 +19°C° 0 mm 4 mps 756 mmHg 68%
    22:00 +19°C° 0 mm 4 mps 756 mmHg 68%
    23:00 +18°C° 0 mm 4 mps 756 mmHg 68%
    Show more